When you browse on this site, cookies collect data to enhance your experience and personalize the content and advertising you see.
Visit our Privacy Policy to learn more. By continuing to use the site, you agree to this use of cookies and data.
  • In Italy
  • List of Countries
  • For 7 days
  • Water Temperature
  • Satellite Maps
  • Weather Map
  • Weather Widgets
  • user-avatar
    Login

    Hourly Weather Bedomin

    Today, 23 July, Tuesday

    Time Temperature Precipitation Wind Pressure Humidity
    00:00 +16°C° 0 mm 3 mps 748 mmHg 78%
    01:00 +16°C° 0 mm 3 mps 748 mmHg 75%
    02:00 +15°C° 0.1 mm 2 mps 748 mmHg 81%
    03:00 +15°C° 0.1 mm 2 mps 747 mmHg 87%
    04:00 +14°C° 0.1 mm 2 mps 747 mmHg 92%
    05:00 +15°C° 0.1 mm 2 mps 747 mmHg 93%
    06:00 +15°C° 0.1 mm 1 mps 747 mmHg 93%
    07:00 +15°C° 0.1 mm 1 mps 747 mmHg 94%
    08:00 +15°C° 0.1 mm 1 mps 747 mmHg 94%
    09:00 +15°C° 0.1 mm 1 mps 747 mmHg 94%
    10:00 +16°C° 0.1 mm 1 mps 747 mmHg 95%
    11:00 +16°C° 0.1 mm 2 mps 747 mmHg 94%
    12:00 +17°C° 0.1 mm 2 mps 747 mmHg 93%
    13:00 +17°C° 0.1 mm 2 mps 747 mmHg 93%
    14:00 +18°C° 0.1 mm 2 mps 747 mmHg 93%
    15:00 +18°C° 0.1 mm 2 mps 747 mmHg 92%
    16:00 +19°C° 0.1 mm 3 mps 747 mmHg 92%
    17:00 +19°C° 0 mm 3 mps 747 mmHg 92%
    18:00 +19°C° 0 mm 2 mps 747 mmHg 92%
    19:00 +19°C° 0 mm 2 mps 747 mmHg 92%
    20:00 +18°C° 0 mm 2 mps 747 mmHg 94%
    21:00 +17°C° 0 mm 2 mps 747 mmHg 95%
    22:00 +16°C° 0 mm 2 mps 747 mmHg 97%
    23:00 +16°C° 0 mm 1 mps 747 mmHg 97%

    Tomorrow, 24 July, Wednesday

    Time Temperature Precipitation Wind Pressure Humidity
    00:00 +16°C° 0 mm 1 mps 747 mmHg 97%
    01:00 +15°C° 0 mm 0 mps 747 mmHg 97%
    02:00 +16°C° 0.1 mm 1 mps 747 mmHg 97%
    03:00 +16°C° 0.1 mm 1 mps 747 mmHg 97%
    04:00 +16°C° 0.1 mm 1 mps 746 mmHg 97%
    05:00 +18°C° 0 mm 1 mps 747 mmHg 95%
    06:00 +19°C° 0 mm 1 mps 747 mmHg 92%
    07:00 +21°C° 0 mm 1 mps 747 mmHg 90%
    08:00 +22°C° 0.1 mm 1 mps 747 mmHg 85%
    09:00 +23°C° 0.1 mm 1 mps 747 mmHg 80%
    10:00 +24°C° 0.1 mm 1 mps 747 mmHg 75%
    11:00 +25°C° 0.2 mm 1 mps 747 mmHg 72%
    12:00 +25°C° 0.2 mm 2 mps 747 mmHg 68%
    13:00 +26°C° 0.2 mm 2 mps 747 mmHg 64%
    14:00 +26°C° 0.1 mm 2 mps 747 mmHg 65%
    15:00 +25°C° 0.1 mm 3 mps 747 mmHg 66%
    16:00 +25°C° 0.1 mm 3 mps 747 mmHg 68%
    17:00 +24°C° 0 mm 3 mps 747 mmHg 71%
    18:00 +23°C° 0 mm 2 mps 747 mmHg 74%
    19:00 +20°C° 0 mm 2 mps 747 mmHg 77%
    20:00 +19°C° 0 mm 2 mps 747 mmHg 80%
    21:00 +18°C° 0 mm 2 mps 747 mmHg 82%
    22:00 +17°C° 0 mm 2 mps 748 mmHg 85%
    23:00 +18°C° 0 mm 1 mps 748 mmHg 86%

    Day after tomorrow, 25 July, Thursday

    Time Temperature Precipitation Wind Pressure Humidity
    00:00 +16°C° 0 mm 1 mps 748 mmHg 87%
    01:00 +16°C° 0 mm 1 mps 748 mmHg 88%
    02:00 +15°C° 0 mm 1 mps 748 mmHg 89%
    03:00 +15°C° 0 mm 1 mps 748 mmHg 89%
    04:00 +15°C° 0 mm 1 mps 748 mmHg 90%
    05:00 +16°C° 0 mm 1 mps 748 mmHg 83%
    06:00 +19°C° 0 mm 1 mps 748 mmHg 77%
    07:00 +20°C° 0 mm 2 mps 748 mmHg 71%
    08:00 +21°C° 0 mm 2 mps 748 mmHg 66%
    09:00 +23°C° 0 mm 2 mps 749 mmHg 62%
    10:00 +25°C° 0 mm 2 mps 749 mmHg 58%
    11:00 +25°C° 0 mm 2 mps 749 mmHg 55%
    12:00 +26°C° 0 mm 3 mps 749 mmHg 53%
    13:00 +27°C° 0 mm 3 mps 748 mmHg 51%
    14:00 +26°C° 0 mm 3 mps 748 mmHg 52%
    15:00 +26°C° 0 mm 4 mps 748 mmHg 53%
    16:00 +26°C° 0 mm 4 mps 748 mmHg 54%
    17:00 +23°C° 0 mm 4 mps 748 mmHg 60%
    18:00 +21°C° 0 mm 3 mps 748 mmHg 66%
    19:00 +20°C° 0 mm 3 mps 748 mmHg 72%
    20:00 +18°C° 0 mm 2 mps 748 mmHg 77%
    21:00 +17°C° 0 mm 2 mps 748 mmHg 82%
    22:00 +16°C° 0 mm 2 mps 748 mmHg 87%
    23:00 +16°C° 0 mm 2 mps 748 mmHg 89%

    26 July, Friday

    Time Temperature Precipitation Wind Pressure Humidity
    00:00 +16°C° 0 mm 2 mps 748 mmHg 90%
    01:00 +16°C° 0 mm 2 mps 748 mmHg 92%
    02:00 +15°C° 0 mm 2 mps 748 mmHg 93%
    03:00 +15°C° 0 mm 2 mps 748 mmHg 93%
    04:00 +15°C° 0 mm 2 mps 747 mmHg 94%
    05:00 +17°C° 0 mm 3 mps 747 mmHg 88%
    06:00 +18°C° 0 mm 4 mps 747 mmHg 81%
    07:00 +20°C° 0 mm 4 mps 747 mmHg 75%
    08:00 +21°C° 0 mm 4 mps 748 mmHg 69%
    09:00 +22°C° 0 mm 5 mps 748 mmHg 64%
    10:00 +23°C° 0 mm 5 mps 748 mmHg 59%
    11:00 +25°C° 0 mm 5 mps 748 mmHg 58%
    12:00 +25°C° 0 mm 5 mps 748 mmHg 57%
    13:00 +26°C° 0 mm 5 mps 747 mmHg 56%
    14:00 +25°C° 0 mm 5 mps 747 mmHg 58%
    15:00 +25°C° 0 mm 5 mps 747 mmHg 60%
    16:00 +25°C° 0 mm 5 mps 747 mmHg 61%
    17:00 +22°C° 0 mm 5 mps 747 mmHg 67%
    18:00 +21°C° 0 mm 4 mps 747 mmHg 73%
    19:00 +20°C° 0 mm 4 mps 747 mmHg 78%
    20:00 +19°C° 0 mm 4 mps 747 mmHg 83%
    21:00 +19°C° 0 mm 3 mps 747 mmHg 87%
    22:00 +18°C° 0 mm 3 mps 747 mmHg 92%
    23:00 +18°C° 0 mm 3 mps 747 mmHg 92%

    27 July, Saturday

    Time Temperature Precipitation Wind Pressure Humidity
    00:00 +18°C° 0 mm 3 mps 747 mmHg 93%
    01:00 +18°C° 0 mm 2 mps 747 mmHg 93%
    02:00 +17°C° 0 mm 2 mps 747 mmHg 94%
    03:00 +17°C° 0 mm 2 mps 747 mmHg 96%
    04:00 +17°C° 0 mm 2 mps 747 mmHg 97%
    05:00 +18°C° 0 mm 3 mps 747 mmHg 91%
    06:00 +20°C° 0 mm 3 mps 747 mmHg 86%
    07:00 +21°C° 0 mm 4 mps 747 mmHg 80%
    08:00 +23°C° 0 mm 4 mps 747 mmHg 73%
    09:00 +25°C° 0 mm 4 mps 748 mmHg 65%
    10:00 +27°C° 0 mm 5 mps 748 mmHg 58%
    11:00 +27°C° 0 mm 5 mps 748 mmHg 57%
    12:00 +28°C° 0 mm 5 mps 747 mmHg 56%
    13:00 +29°C° 0 mm 5 mps 747 mmHg 54%
    14:00 +28°C° 0 mm 5 mps 747 mmHg 56%
    15:00 +28°C° 0 mm 5 mps 747 mmHg 58%
    16:00 +28°C° 0 mm 5 mps 747 mmHg 59%
    17:00 +26°C° 0 mm 4 mps 747 mmHg 65%
    18:00 +25°C° 0 mm 4 mps 746 mmHg 71%
    19:00 +22°C° 0 mm 4 mps 746 mmHg 76%
    20:00 +21°C° 0 mm 3 mps 746 mmHg 80%
    21:00 +20°C° 0 mm 3 mps 747 mmHg 84%
    22:00 +19°C° 0 mm 3 mps 747 mmHg 88%
    23:00 +19°C° 0 mm 2 mps 747 mmHg 89%

    28 July, Sunday

    Time Temperature Precipitation Wind Pressure Humidity
    00:00 +19°C° 0 mm 2 mps 747 mmHg 90%
    01:00 +19°C° 0 mm 2 mps 746 mmHg 90%
    02:00 +19°C° 0 mm 2 mps 746 mmHg 91%
    03:00 +19°C° 0 mm 2 mps 746 mmHg 91%
    04:00 +20°C° 0 mm 1 mps 746 mmHg 92%
    05:00 +20°C° 0 mm 2 mps 747 mmHg 85%
    06:00 +23°C° 0 mm 2 mps 747 mmHg 79%
    07:00 +25°C° 0 mm 2 mps 747 mmHg 73%
    08:00 +26°C° 0 mm 2 mps 747 mmHg 67%
    09:00 +28°C° 0 mm 3 mps 747 mmHg 61%
    10:00 +29°C° 0 mm 3 mps 747 mmHg 55%
    11:00 +29°C° 0 mm 3 mps 747 mmHg 53%
    12:00 +30°C° 0 mm 3 mps 747 mmHg 51%
    13:00 +30°C° 0 mm 3 mps 747 mmHg 49%
    14:00 +30°C° 0 mm 3 mps 747 mmHg 51%
    15:00 +29°C° 0 mm 3 mps 746 mmHg 53%
    16:00 +29°C° 0 mm 4 mps 746 mmHg 54%
    17:00 +27°C° 0 mm 3 mps 746 mmHg 60%
    18:00 +26°C° 0 mm 3 mps 746 mmHg 66%
    19:00 +24°C° 0 mm 3 mps 746 mmHg 72%
    20:00 +23°C° 0 mm 2 mps 746 mmHg 74%
    21:00 +21°C° 0 mm 2 mps 746 mmHg 77%
    22:00 +19°C° 0 mm 2 mps 746 mmHg 80%
    23:00 +19°C° 0 mm 2 mps 746 mmHg 81%
    Show more